Regional Weather Roundup
Issued by NWS

Current Version | Previous Version | Text Only | Print | Product List | Glossary On
Versions: 1 2 3 4 5 6 7 8 9 10 11 12 13 14 15 16 17 18 19 20 21 22 23 24 25 26 27 28 29 30 31 32 33 34 35 36 37 38 39 40 41 42 43 44 45 46 47 48 49 50
000
ASUS46 KSEW 261620
RWRWA

WASHINGTON REGIONAL WEATHER ROUNDUP
NATIONAL WEATHER SERVICE SEATTLE WA
900 AM PDT TUE OCT 26 2021

NOTE:"FAIR" INDICATES FEW OR NO CLOUDS BELOW 12,000 FEET WITH NO
SIGNIFICANT WEATHER AND/OR OBSTRUCTIONS TO VISIBILITY.

WAZ507-509-555>559-261700-
SEATTLE, TACOMA, EVERETT, AND VICINITY

CITY           SKY/WX    TMP DP  RH WIND       PRES   REMARKS
EVERETT        CLOUDY    49  45  86 SE10G21   29.72F
BOEING FIELD   PTSUNNY   49  49 100 SE7       29.73S
RENTON         CLOUDY    50  45  83 S5        29.72F
SEATAC AIRPORT PTSUNNY   49  45  86 S13       29.72F
JBLM-MCCHORD   LGT RAIN  50  46  87 SE6       29.71F
PUYALLUP       CLOUDY    50  46  87 VRB3      29.72F
BREMERTON      LGT RAIN  48  46  93 S3        29.71F
JBLM-FT LEWIS  LGT RAIN  50  45  81 SE6       29.70F
TACOMA NARROWS LGT RAIN  47  47 100 S3        29.72S
$$

WAZ001-503-506-510-514-515-261700-
NORTH INTERIOR

CITY           SKY/WX    TMP DP  RH WIND       PRES   REMARKS
BELLINGHAM     CLOUDY    52  46  80 S16G29    29.68S
FRIDAY HARBOR  CLOUDY    50  46  86 SE17G28   29.66F
EASTSOUND      CLOUDY    52  46  82 S10       29.64F
PORT ANGELES   FAIR      46  44  93 S5        29.64S
EDIZ HOOK      FAIR      47  47  97 SE3       29.64S
PORT TOWNSEND  PTSUNNY   50  46  87 SE13G21   29.66S
NAS WHIDBEY    LGT RAIN  53  46  77 SE28G38   29.71S
ARLINGTON      PTSUNNY   50  46  86 SE10      29.73S
BURLINGTON     CLOUDY    52  46  82 SE10      29.70S
$$

WAZ020-022-039-040-504-511-512-261700-
SOUTHWEST INTERIOR

CITY           SKY/WX    TMP DP  RH WIND       PRES   REMARKS
SHELTON        LGT RAIN  49  47  93 VRB3      29.68S FOG
OLYMPIA        CLOUDY    50  47  89 S10G18    29.70
CHEHALIS       CLOUDY    50  50 100 S8G16     29.72F
KELSO          LGT RAIN  52  47  83 S10G17    29.76S
VANCOUVER      CLOUDY    52  47  83 SE8       29.79S
SCAPPOOSE, OR  LGT RAIN  51  48  89 SE7       29.77S FOG
PORTLAND, OR   CLOUDY    52  46  80 SE12      29.79S
$$

WAZ021-516-517-261700-
WASHINGTON COAST

CITY           SKY/WX    TMP DP  RH WIND       PRES   REMARKS
FORKS          LGT RAIN  48  48 100 E6        29.59F FOG
HOQUIAM        LGT RAIN  51  48  89 E14       29.65F FOG
ASTORIA, OR    LGT RAIN  50  49  96 SE7       29.67F FOG
$$

WAZ019-023-024-040-567>569-261700-
CASCADE MOUNTAINS AND COLUMBIA GORGE

CITY           SKY/WX    TMP DP  RH WIND       PRES   REMARKS
STAMPEDE PASS  FOG       37  36  96 CALM      29.74R VSB 1/4
TROUTDALE, OR  CLOUDY    51  46  83 E5        29.80S
HOOD RIVER, OR CLOUDY    46  45  93 CALM      29.83R
THE DALLES, OR CLOUDY    49  44  83 CALM      29.83S
$$

WAZ026-027-041>044-520-521-261700-
EAST SLOPES

CITY           SKY/WX    TMP DP  RH WIND       PRES   REMARKS
OMAK           FAIR      48  38  68 S9        29.74R
WENATCHEE      CLOUDY    42  40  92 CALM      29.77R
ELLENSBURG     CLOUDY    39  34  82 NW3       29.78R
YAKIMA         CLOUDY    44  43  96 NW3       29.79R
SUNNYSIDE ARPT CLOUDY    50  41  71 CALM      29.83R
YAKIMA TC      CLOUDY    44  37  77 CALM      29.77R
$$

WAZ028-034-035-261700-
COLUMBIA BASIN

CITY           SKY/WX    TMP DP  RH WIND       PRES   REMARKS
EPHRATA        CLOUDY    45  39  79 S7        29.77R
MOSES LAKE     CLOUDY    46  40  79 S7        29.79R
PASCO          FAIR      54  39  57 SE8       29.85R
RICHLAND ARPT  FAIR      54  40  58 SW13G20   29.83S
HERMISTON, OR  LGT RAIN  50  43  77 SE6       29.86R
$$

WAZ036>038-261700-
NORTHEAST WASHINGTON

CITY           SKY/WX    TMP DP  RH WIND       PRES   REMARKS
SPOKANE GEIGER PTSUNNY   43  36  76 S12       29.80R
SPOKANE FELTS  CLOUDY    46  37  71 SW8       29.83R
FAIRCHILD AFB  CLOUDY    41  41  99 S13       29.79R
COEURDALENE,ID CLOUDY    44  38  79 S8        29.83R
DEER PARK      LGT RAIN  44  38  79 S10       29.81R
$$

WAZ029>033-261700-
SOUTHEAST WASHINGTON

CITY           SKY/WX    TMP DP  RH WIND       PRES   REMARKS
PULLMAN        CLOUDY    44  36  73 S6        29.86R
LEWISTON, ID   CLOUDY    48  42  80 E3        29.86R
WALLA WALLA    LGT RAIN  50  40  68 S10       29.85R
PENDLETON, OR  CLOUDY    50  37  61 SW12      29.87R
$$



USA.gov is the U.S. government's official web portal to all federal, state and local government web resources and services.